DW1389 Weather Reports


Display with metric or nautical units.
time (UTC)temp
F
wind
direction
speed
MPH
gust
MPH
rain 1hr
in
rain 24hr
in
rain mn
in
humidity
%
barometer
mb
20220808044702 83 0 2.0 5.0 0.00 0.00 0.00 71 1017.0
20220808044202 83 0 2.0 6.0 0.00 0.00 0.00 70 1016.9
20220808043702 83 0 1.0 6.0 0.00 0.00 0.00 70 1016.9
20220808043203 83 0 2.0 8.0 0.00 0.00 0.00 70 1016.8
20220808042702 84 0 2.0 8.0 0.00 0.00 0.00 70 1016.8
20220808042203 84 0 2.0 6.0 0.00 0.00 0.00 70 1016.8
20220808041702 84 0 2.0 6.0 0.00 0.00 0.00 69 1016.6
20220808041201 84 0 2.0 6.0 0.00 0.00 0.00 69 1016.7
20220808040701 84 0 3.0 8.0 0.00 0.00 0.00 69 1016.7
20220808040201 84 0 3.0 11.0 0.00 0.00 0.00 69 1016.7
20220808035701 84 0 3.0 11.0 0.00 0.00 0.00 69 1016.6
20220808035201 84 0 3.0 9.0 0.00 0.00 0.00 69 1016.7
20220808034701 84 0 3.0 9.0 0.00 0.00 0.00 69 1016.8
20220808034202 84 0 3.0 9.0 0.00 0.00 0.00 69 1016.8
20220808033701 84 0 2.0 8.0 0.00 0.00 0.00 68 1016.8
20220808033200 85 0 2.0 8.0 0.00 0.00 0.00 68 1016.7
20220808032703 85 0 3.0 8.0 0.00 0.00 0.00 68 1016.7
20220808032203 85 0 3.0 8.0 0.00 0.00 0.00 68 1016.7
20220808031703 85 0 3.0 8.0 0.00 0.00 0.00 68 1016.6
20220808031202 85 0 3.0 6.0 0.00 0.00 0.00 68 1016.5
20220808030701 85 0 3.0 9.0 0.00 0.00 0.00 67 1016.4
20220808030201 85 0 3.0 10.0 0.00 0.00 0.00 67 1016.5
20220808025702 85 0 3.0 10.0 0.00 0.00 0.00 67 1016.5
20220808025201 85 0 3.0 10.0 0.00 0.00 0.00 66 1016.5
20220808024704 85 0 3.0 10.0 0.00 0.00 0.00 66 1016.3
20220808024201 85 0 3.0 10.0 0.00 0.00 0.00 66 1016.4
20220808023701 85 0 3.0 10.0 0.00 0.00 0.00 65 1016.3
20220808023202 86 0 2.0 8.0 0.00 0.00 0.00 65 1016.3
20220808022701 86 0 2.0 9.0 0.00 0.00 0.00 65 1016.2
20220808022202 86 0 3.0 9.0 0.00 0.00 0.00 64 1016.2
20220808021702 86 0 3.0 8.0 0.00 0.00 0.00 64 1016.2
20220808021203 86 0 2.0 8.0 0.00 0.00 0.00 64 1016.0
20220808020700 86 0 3.0 10.0 0.00 0.00 0.00 63 1016.0
20220808020201 86 0 2.0 10.0 0.00 0.00 0.00 63 1016.0
20220808015701 87 0 2.0 10.0 0.00 0.00 0.00 63 1015.9
20220808015203 87 0 3.0 8.0 0.00 0.00 0.00 62 1015.8
20220808014702 87 0 3.0 11.0 0.00 0.00 0.00 62 1015.7
20220808014201 87 0 4.0 12.0 0.00 0.00 0.00 61 1015.7
20220808013700 87 0 3.0 12.0 0.00 0.00 0.00 61 1015.8
20220808013202 87 0 3.0 9.0 0.00 0.00 0.00 60 1015.7
20220808012702 88 0 4.0 11.0 0.00 0.00 0.00 60 1015.7
20220808012201 88 0 4.0 11.0 0.00 0.00 0.00 59 1015.7
20220808011703 88 131 5.0 12.0 0.00 0.00 0.00 59 1015.6
20220808011203 89 0 4.0 12.0 0.00 0.00 0.00 58 1015.5
20220808010703 89 0 3.0 12.0 0.00 0.00 0.00 57 1015.4
20220808010202 90 0 3.0 12.0 0.00 0.00 0.00 56 1015.3
20220808005703 90 0 3.0 11.0 0.00 0.00 0.00 56 1015.3
20220808005201 90 0 4.0 11.0 0.00 0.00 0.00 56 1015.0
20220808004702 91 0 4.0 12.0 0.00 0.00 0.00 55 1014.9
20220808004202 91 107 4.0 12.0 0.00 0.00 0.00 54 1015.2
20220808003703 92 349 5.0 13.0 0.00 0.00 0.00 53 1015.0
20220808003200 92 126 5.0 13.0 0.00 0.00 0.00 51 1015.0
20220808002702 93 123 4.0 12.0 0.00 0.00 0.00 51 1015.0
20220808002202 93 145 5.0 15.0 0.00 0.00 0.00 51 1014.9
20220808001701 94 167 5.0 15.0 0.00 0.00 0.00 50 1014.8
20220808001203 94 137 4.0 10.0 0.00 0.00 0.00 49 1014.8
20220808000701 94 117 4.0 10.0 0.00 0.00 0.00 46 1014.7
20220808000204 95 113 4.0 10.0 0.00 0.00 0.00 47 1014.6
20220807235701 95 122 3.0 10.0 0.00 0.00 0.00 47 1014.6
20220807235202 95 134 4.0 10.0 0.00 0.00 0.00 47 1014.6
20220807234703 96 162 4.0 12.0 0.00 0.00 0.00 47 1014.7
20220807234202 96 134 4.0 12.0 0.00 0.00 0.00 47 1014.7
20220807233702 97 141 3.0 11.0 0.00 0.00 0.00 46 1014.6
20220807233201 97 250 3.0 10.0 0.00 0.00 0.00 46 1014.5
20220807232702 98 119 3.0 10.0 0.00 0.00 0.00 44 1014.4
20220807232202 98 216 4.0 13.0 0.00 0.00 0.00 45 1014.5
20220807231703 99 138 5.0 16.0 0.00 0.00 0.00 44 1014.5
20220807231201 99 124 4.0 16.0 0.00 0.00 0.00 44 1014.5
20220807230703 99 290 3.0 11.0 0.00 0.00 0.00 42 1014.5
20220807230202 99 228 2.0 10.0 0.00 0.00 0.00 43 1014.4
20220807225701 98 191 3.0 8.0 0.00 0.00 0.00 43 1014.5
20220807225202 98 198 4.0 10.0 0.00 0.00 0.00 43 1014.5
20220807224702 98 98 4.0 12.0 0.00 0.00 0.00 43 1014.6
20220807224202 99 115 3.0 12.0 0.00 0.00 0.00 43 1014.6
20220807223701 99 126 3.0 9.0 0.00 0.00 0.00 43 1014.7
20220807223201 99 110 3.0 9.0 0.00 0.00 0.00 42 1014.7
20220807222702 98 145 3.0 7.0 0.00 0.00 0.00 44 1014.8
20220807222201 98 119 3.0 9.0 0.00 0.00 0.00 43 1014.7
20220807221701 99 172 3.0 9.0 0.00 0.00 0.00 43 1014.6
20220807221201 99 159 3.0 10.0 0.00 0.00 0.00 43 1014.8
20220807220702 99 196 3.0 10.0 0.00 0.00 0.00 43 1014.9
20220807220200 99 213 2.0 8.0 0.00 0.00 0.00 45 1014.9
20220807215701 98 175 3.0 10.0 0.00 0.00 0.00 46 1014.9
20220807215206 98 112 3.0 10.0 0.00 0.00 0.00 45 1014.9
20220807214702 99 85 3.0 9.0 0.00 0.00 0.00 44 1014.8
20220807214203 99 140 3.0 10.0 0.00 0.00 0.00 46 1014.8
20220807213701 99 132 5.0 12.0 0.00 0.00 0.00 46 1014.9
20220807213201 99 74 5.0 12.0 0.00 0.00 0.00 45 1014.9
20220807212701 99 150 4.0 11.0 0.00 0.00 0.00 46 1015.0
20220807212202 99 83 5.0 16.0 0.00 0.00 0.00 46 1015.0
20220807211701 98 142 5.0 16.0 0.00 0.00 0.00 47 1015.2
20220807211204 98 142 5.0 13.0 0.00 0.00 0.00 46 1015.2
20220807210701 98 125 5.0 17.0 0.00 0.00 0.00 46 1015.3
20220807210201 99 58 4.0 17.0 0.00 0.00 0.00 45 1015.4
20220807205701 100 205 3.0 9.0 0.00 0.00 0.00 45 1015.4
20220807205201 100 80 2.0 8.0 0.00 0.00 0.00 43 1015.6
20220807204701 101 81 2.0 8.0 0.00 0.00 0.00 43 1015.7
20220807204201 100 186 3.0 10.0 0.00 0.00 0.00 44 1015.8
20220807203703 100 146 3.0 11.0 0.00 0.00 0.00 43 1015.7
20220807203200 100 142 3.0 11.0 0.00 0.00 0.00 44 1015.8
20220807202702 100 168 3.0 10.0 0.00 0.00 0.00 43 1015.9
20220807202204 100 118 3.0 10.0 0.00 0.00 0.00 43 1016.0
20220807201701 100 90 3.0 9.0 0.00 0.00 0.00 43 1016.0
20220807201201 100 226 3.0 13.0 0.00 0.00 0.00 45 1016.1
20220807200702 99 240 3.0 13.0 0.00 0.00 0.00 45 1016.1
20220807200201 99 128 3.0 9.0 0.00 0.00 0.00 44 1016.2
20220807195701 100 230 3.0 10.0 0.00 0.00 0.00 45 1016.3
20220807195202 101 82 3.0 12.0 0.00 0.00 0.00 45 1016.4
20220807194702 100 286 3.0 12.0 0.00 0.00 0.00 45 1016.5
20220807194201 100 227 5.0 12.0 0.00 0.00 0.00 45 1016.6
20220807193701 100 246 5.0 12.0 0.00 0.00 0.00 45 1016.7
20220807193201 99 213 4.0 14.0 0.00 0.00 0.00 46 1016.6
20220807192705 98 231 3.0 14.0 0.00 0.00 0.00 47 1016.7
20220807192202 98 127 4.0 10.0 0.00 0.00 0.00 47 1016.7
20220807191700 98 96 3.0 9.0 0.00 0.00 0.00 46 1016.9
20220807191201 98 82 3.0 11.0 0.00 0.00 0.00 46 1016.9
20220807190702 98 178 3.0 11.0 0.00 0.00 0.00 48 1016.9
20220807190204 98 142 3.0 8.0 0.00 0.00 0.00 47 1017.1
20220807185702 98 96 2.0 8.0 0.00 0.00 0.00 49 1017.2
20220807185202 98 88 3.0 7.0 0.00 0.00 0.00 49 1017.1
20220807184701 97 169 3.0 7.0 0.00 0.00 0.00 50 1017.3
20220807184203 97 89 2.0 7.0 0.00 0.00 0.00 49 1017.3
20220807183702 96 210 3.0 7.0 0.00 0.00 0.00 50 1017.3
20220807183201 96 235 3.0 9.0 0.00 0.00 0.00 50 1017.5
20220807182700 96 158 3.0 10.0 0.00 0.00 0.00 51 1017.5
20220807182202 96 170 3.0 10.0 0.00 0.00 0.00 50 1017.6
20220807181701 96 219 3.0 9.0 0.00 0.00 0.00 50 1017.8
20220807181200 96 123 3.0 8.0 0.00 0.00 0.00 52 1017.8
20220807180702 96 95 3.0 7.0 0.00 0.00 0.00 53 1018.1
20220807180202 96 163 3.0 9.0 0.00 0.00 0.00 52 1018.0
20220807175701 95 227 4.0 12.0 0.00 0.00 0.00 52 1018.1
20220807175200 95 246 4.0 12.0 0.00 0.00 0.00 53 1018.2
20220807174701 94 238 3.0 9.0 0.00 0.00 0.00 55 1018.2
20220807174201 94 94 3.0 10.0 0.00 0.00 0.00 54 1018.3
20220807173700 95 142 3.0 10.0 0.00 0.00 0.00 55 1018.4
20220807173201 94 260 3.0 11.0 0.00 0.00 0.00 56 1018.5
20220807172703 95 40 3.0 11.0 0.00 0.00 0.00 54 1018.5
20220807172200 95 192 3.0 8.0 0.00 0.00 0.00 54 1018.8
20220807171702 94 223 3.0 6.0 0.00 0.00 0.00 57 1018.8
20220807171200 94 144 3.0 8.0 0.00 0.00 0.00 57 1018.9
20220807170701 94 148 3.0 9.0 0.00 0.00 0.00 58 1018.9
20220807170200 94 166 3.0 9.0 0.00 0.00 0.00 58 1019.1
20220807165703 93 238 3.0 9.0 0.00 0.00 0.00 59 1019.2
20220807165201 93 104 2.0 8.0 0.00 0.00 0.00 59 1019.2
20220807164701 93 172 3.0 10.0 0.00 0.00 0.00 58 1019.2
20220807164204 93 202 4.0 10.0 0.00 0.00 0.00 59 1019.3
20220807163702 93 200 4.0 11.0 0.00 0.00 0.00 59 1019.3
20220807163202 93 240 3.0 11.0 0.00 0.00 0.00 61 1019.3
20220807162702 92 210 3.0 8.0 0.00 0.00 0.00 61 1019.2
20220807162201 92 136 3.0 8.0 0.00 0.00 0.00 61 1019.2
20220807161701 92 213 3.0 8.0 0.00 0.00 0.00 65 1019.3
20220807161201 92 213 3.0 9.0 0.00 0.00 0.00 67 1019.3
20220807160701 91 137 3.0 10.0 0.00 0.00 0.00 64 1019.2
20220807160202 91 131 4.0 13.0 0.00 0.00 0.00 65 1019.2
20220807155700 90 140 3.0 13.0 0.00 0.00 0.00 67 1019.2
20220807155202 90 244 2.0 8.0 0.00 0.00 0.00 69 1019.2
20220807154704 89 205 3.0 8.0 0.00 0.00 0.00 69 1019.3
20220807154201 89 229 3.0 9.0 0.00 0.00 0.00 70 1019.2
20220807153704 88 146 3.0 10.0 0.00 0.00 0.00 71 1019.1
20220807153202 88 138 3.0 10.0 0.00 0.00 0.00 71 1019.2
20220807152701 87 189 2.0 7.0 0.00 0.00 0.00 72 1019.0
20220807152201 86 207 2.0 6.0 0.00 0.00 0.00 75 1019.1
20220807151702 85 208 3.0 9.0 0.00 0.00 0.00 75 1019.0
20220807151202 85 0 2.0 9.0 0.00 0.00 0.00 76 1019.1
20220807150702 85 210 2.0 9.0 0.00 0.00 0.00 77 1019.1
20220807150206 85 0 2.0 9.0 0.00 0.00 0.00 76 1019.1
20220807145700 85 207 3.0 8.0 0.00 0.00 0.00 77 1019.0
20220807145204 85 209 3.0 9.0 0.00 0.00 0.00 77 1019.1
20220807144704 85 199 2.0 9.0 0.00 0.00 0.00 78 1019.1
20220807144206 85 180 2.0 7.0 0.00 0.00 0.00 79 1019.1
20220807143704 85 180 2.0 7.0 0.00 0.00 0.00 80 1019.2
20220807143203 84 170 1.0 5.0 0.00 0.00 0.00 81 1019.2
20220807142701 83 178 2.0 5.0 0.00 0.00 0.00 83 1019.0
20220807142202 83 0 1.0 5.0 0.00 0.00 0.00 83 1019.2
20220807141703 82 0 1.0 4.0 0.00 0.00 0.00 83 1019.1
20220807141203 82 0 1.0 4.0 0.00 0.00 0.00 83 1019.3
20220807140702 82 0 2.0 4.0 0.00 0.00 0.00 83 1019.3
20220807140206 82 178 2.0 5.0 0.00 0.00 0.00 83 1019.3
20220807135700 82 180 2.0 5.0 0.00 0.00 0.00 85 1019.3
20220807135200 81 179 2.0 6.0 0.00 0.00 0.00 85 1019.2
20220807134701 81 0 2.0 6.0 0.00 0.00 0.00 85 1019.2
20220807134203 80 0 2.0 5.0 0.00 0.00 0.00 86 1019.1
20220807133703 80 0 2.0 5.0 0.00 0.00 0.00 87 1019.0
20220807133201 79 0 2.0 6.0 0.00 0.00 0.00 87 1019.1
20220807132703 79 0 1.0 6.0 0.00 0.00 0.00 88 1019.0
20220807132203 78 0 1.0 4.0 0.00 0.00 0.00 88 1019.0
20220807131702 78 0 1.0 4.0 0.00 0.00 0.00 88 1018.8
20220807131201 78 0 1.0 4.0 0.00 0.00 0.00 88 1018.8
20220807130702 78 0 1.0 4.0 0.00 0.00 0.00 88 1018.8
20220807130202 77 0 1.0 4.0 0.00 0.00 0.00 88 1018.8
20220807125702 77 0 1.0 3.0 0.00 0.00 0.00 88 1018.6
20220807125202 77 0 0.0 3.0 0.00 0.00 0.00 88 1018.7
20220807124702 77 0 1.0 3.0 0.00 0.00 0.00 88 1018.5
20220807124202 77 0 1.0 3.0 0.00 0.00 0.00 88 1018.5
20220807123702 77 0 1.0 3.0 0.00 0.00 0.00 88 1018.4
20220807123201 77 0 1.0 2.0 0.00 0.00 0.00 88 1018.5
20220807122701 77 0 1.0 2.0 0.00 0.00 0.00 88 1018.4
20220807122203 77 0 0.0 3.0 0.00 0.00 0.00 87 1018.4
20220807121701 77 0 1.0 3.0 0.00 0.00 0.00 87 1018.4
20220807121200 77 0 1.0 4.0 0.00 0.00 0.00 87 1018.3
20220807120700 77 0 1.0 4.0 0.00 0.00 0.00 87 1018.2
20220807120202 77 0 0.0 3.0 0.00 0.00 0.00 87 1018.2
20220807115700 77 0 0.0 2.0 0.00 0.00 0.00 87 1018.1
20220807115204 77 0 0.0 2.0 0.00 0.00 0.00 87 1017.9
20220807114702 77 0 1.0 3.0 0.00 0.00 0.00 87 1017.9
20220807114200 77 0 1.0 3.0 0.00 0.00 0.00 87 1017.8
20220807113702 77 0 1.0 3.0 0.00 0.00 0.00 87 1017.8
20220807113201 77 0 1.0 3.0 0.00 0.00 0.00 87 1017.7
20220807112703 77 0 1.0 3.0 0.00 0.00 0.00 87 1017.6
20220807112203 77 0 1.0 4.0 0.00 0.00 0.00 87 1017.6
20220807111700 77 0 1.0 4.0 0.00 0.00 0.00 87 1017.6
20220807111202 77 0 0.0 2.0 0.00 0.00 0.00 87 1017.5
20220807110701 77 0 1.0 4.0 0.00 0.00 0.00 87 1017.4
20220807110202 77 0 1.0 4.0 0.00 0.00 0.00 87 1017.3
20220807105702 77 0 1.0 4.0 0.00 0.00 0.00 87 1017.4
20220807105159 77 0 1.0 5.0 0.00 0.00 0.00 87 1017.2
20220807104659 77 0 1.0 5.0 0.00 0.00 0.00 87 1017.2
20220807104200 77 0 1.0 5.0 0.00 0.00 0.00 86 1017.2
20220807103658 77 0 1.0 5.0 0.00 0.00 0.00 86 1017.2
20220807103200 77 0 1.0 4.0 0.00 0.00 0.00 86 1017.1
20220807102657 77 0 1.0 4.0 0.00 0.00 0.00 86 1017.3
20220807102155 77 0 1.0 3.0 0.00 0.00 0.00 86 1017.1
20220807101655 77 0 1.0 5.0 0.00 0.00 0.00 86 1017.2
20220807101157 77 0 1.0 5.0 0.00 0.00 0.00 86 1017.1
20220807100655 77 0 1.0 5.0 0.00 0.00 0.00 86 1017.2
20220807100154 77 0 1.0 5.0 0.00 0.00 0.00 86 1017.1
20220807095651 77 0 1.0 5.0 0.00 0.00 0.00 86 1017.1
20220807095151 77 0 1.0 2.0 0.00 0.00 0.00 86 1017.2
20220807094651 77 0 1.0 3.0 0.00 0.00 0.00 85 1017.2
20220807094151 77 0 1.0 3.0 0.00 0.00 0.00 85 1017.1
20220807093649 77 0 1.0 4.0 0.00 0.00 0.00 85 1017.0
20220807093150 77 0 2.0 5.0 0.00 0.00 0.00 85 1017.2
20220807092646 77 0 2.0 5.0 0.00 0.00 0.00 85 1017.2
20220807092147 77 0 1.0 4.0 0.00 0.00 0.00 85 1017.3
20220807091641 77 0 1.0 5.0 0.00 0.00 0.00 85 1017.4
20220807091140 77 182 1.0 5.0 0.00 0.00 0.00 85 1017.3
20220807090642 77 0 1.0 4.0 0.00 0.00 0.00 85 1017.3
20220807090139 77 0 1.0 4.0 0.00 0.00 0.00 84 1017.4
20220807085635 77 0 1.0 3.0 0.00 0.00 0.00 84 1017.4
20220807085135 77 0 1.0 4.0 0.00 0.00 0.00 84 1017.3
20220807084635 77 0 1.0 4.0 0.00 0.00 0.00 84 1017.4
20220807084133 77 0 1.0 3.0 0.00 0.00 0.00 84 1017.3
20220807083633 77 0 1.0 3.0 0.00 0.00 0.00 83 1017.3
20220807083130 77 0 1.0 3.0 0.00 0.00 0.00 83 1017.3
20220807082632 77 0 1.0 3.0 0.00 0.00 0.00 83 1017.3
20220807082133 77 0 1.0 3.0 0.00 0.00 0.00 83 1017.2
20220807081630 77 0 1.0 3.0 0.00 0.00 0.00 83 1017.2
20220807081130 77 0 1.0 6.0 0.00 0.00 0.00 83 1017.3
20220807080630 78 0 1.0 6.0 0.00 0.00 0.00 83 1017.2
20220807080130 78 0 1.0 3.0 0.00 0.00 0.00 82 1017.3
20220807075630 78 0 1.0 4.0 0.00 0.00 0.00 82 1017.3
20220807075131 78 0 1.0 4.0 0.00 0.00 0.00 82 1017.3
20220807074630 78 0 1.0 4.0 0.00 0.00 0.00 82 1017.3
20220807074130 78 0 1.0 4.0 0.00 0.00 0.00 82 1017.4
20220807073627 78 0 1.0 3.0 0.00 0.00 0.00 82 1017.4
20220807073127 78 0 1.0 4.0 0.00 0.00 0.00 82 1017.4
20220807072627 78 0 1.0 4.0 0.00 0.00 0.00 81 1017.5
20220807072126 78 0 1.0 4.0 0.00 0.00 0.00 81 1017.5
20220807071624 78 0 1.0 4.0 0.00 0.00 0.00 81 1017.4
20220807071123 78 0 1.0 4.0 0.00 0.00 0.00 81 1017.4
20220807070623 78 0 1.0 4.0 0.00 0.00 0.00 80 1017.3
20220807070122 78 0 1.0 5.0 0.00 0.00 0.00 80 1017.2
20220807065622 78 0 1.0 5.0 0.00 0.00 0.00 80 1017.3
20220807065122 78 0 1.0 5.0 0.00 0.00 0.00 80 1017.2
20220807064622 78 0 1.0 6.0 0.00 0.00 0.00 80 1017.3
20220807064122 78 0 1.0 6.0 0.00 0.00 0.00 80 1017.0
20220807063616 78 0 1.0 5.0 0.00 0.00 0.00 80 1017.0
20220807063117 78 0 1.0 5.0 0.00 0.00 0.00 80 1017.1
20220807062617 78 0 1.0 4.0 0.00 0.00 0.00 79 1017.1
20220807062117 78 0 2.0 8.0 0.00 0.00 0.00 79 1017.1
20220807061610 78 0 2.0 8.0 0.00 0.00 0.00 79 1017.1
20220807061105 78 0 1.0 5.0 0.00 0.00 0.00 79 1017.0
20220807060602 79 0 1.0 5.0 0.00 0.00 0.00 79 1017.0
20220807060101 79 0 1.0 5.0 0.00 0.00 0.00 79 1016.9
20220807055603 79 0 1.0 6.0 0.00 0.00 0.00 79 1017.0
20220807055102 79 0 1.0 6.0 0.00 0.00 0.00 79 1017.0
20220807054601 79 0 1.0 5.0 0.00 0.00 0.00 79 1017.0
20220807054103 79 0 1.0 4.0 0.00 0.00 0.00 78 1017.0
20220807053602 79 0 1.0 4.0 0.00 0.00 0.00 78 1017.0
20220807053102 79 0 1.0 4.0 0.00 0.00 0.00 78 1017.0
20220807052602 79 0 1.0 5.0 0.00 0.00 0.00 78 1016.9
20220807052102 79 0 1.0 5.0 0.00 0.00 0.00 78 1016.9
20220807051600 79 0 1.0 4.0 0.00 0.00 0.00 78 1016.9
20220807051102 80 0 1.0 4.0 0.00 0.00 0.00 78 1016.9
20220807050601 80 0 1.0 4.0 0.00 0.00 0.00 78 1016.8
20220807050104 80 0 2.0 5.0 0.00 0.00 0.00 78 1016.8
20220807045602 80 0 2.0 5.0 0.00 0.00 0.00 78 1016.8
20220807045100 80 0 2.0 5.0 0.00 0.00 0.00 78 1016.9